User: anonymous   Login
Location: Ar Ranvel
(48.3000°N, 4.8833°W)
Time: 18:05:00
(UTC+00:00)
Language:

FALCON 9 DEB - Orbit

View from above orbital plane
View from above orbital plane
View from above satellite
View from above satellite

Ground track
Ground track

The orbit data is extracted from the following two-line orbital elements,

1 46086U 20055BM  21267.94657378  .00032286  00000-0  27290-3 0  9997
2 46086  53.0063  65.3032 0010841 202.4957 157.5585 15.69405721 69297
Epoch (UTC): 24 September 2021 22:43:03
Eccentricity: 0.0010841
inclination: 53.0063°
perigee height: 353 km
apogee height: 368 km
right ascension of ascending node: 65.3032°
argument of perigee: 202.4957°
revolutions per day: 15.69405721
mean anomaly at epoch: 157.5585°
orbit number at epoch: 6929

The dashed part of the orbit path shows where the satellite is in the earth's shadow,  

DLR